Weather Roundup
Issued by NWS

Home | Current Version | Previous Version | Text Only | Print | Product List | Glossary On
Versions: 1 2 3 4 5 6 7 8 9 10 11 12 13 14 15 16 17 18 19 20 21 22 23 24 25 26 27 28 29 30 31 32 33 34 35 36 37 38 39 40 41 42 43 44 45 46 47 48 49 50
000
NZUS93 KARX 211010
HRRWXR

CURRENT HOURLY OBSERVATIONS ACROSS
MUCH OF THE UPPER MISSISSIPPI VALLEY
NATIONAL WEATHER SERVICE LA CROSSE WI
500 AM CDT TUE OCT 21 2014


...SOUTHEAST MINNESOTA...


CITY           SKY/WX    TMP DP  RH WIND       PRES   REMARKS
ROCHESTER      CLEAR     40  37  89 N5        30.14R
ROCHESTER/MAYO FAIR      40  36  84 CALM      30.14S
WINONA         CLEAR     37  36  93 CALM      30.16R
AUSTIN         CLEAR     34  34 100 CALM      30.13R
ALBERT LEA     CLEAR     36  36 100 CALM      30.12S
DODGE CENTER   CLEAR     37  36  93 NE3       30.13S
PRESTON        CLEAR     39  36  89 CALM      30.14R
OWATONNA       FOG       30  30 100 CALM      30.14R VSB 1/2
FARIBAULT      CLEAR     30  28  93 CALM      30.14S
$$

...ELSEWHERE IN MINNESOTA...


CITY           SKY/WX    TMP DP  RH WIND       PRES   REMARKS
MINNEAPOLIS    CLEAR     38  36  92 N3        30.15R
INTNL FALLS    CLOUDY    40  34  79 SE7       30.16S
DULUTH         CLOUDY    43  37  79 E10       30.17R
RED WING       CLEAR     36  34  93 CALM      30.15R
REDWOOD FALLS  CLEAR     40  37  89 E6        30.11S
MANKATO        CLEAR     43  36  75 E6        30.13R
WORTHINGTON    PTCLDY    34  30  86 CALM      30.11S
FAIRMONT       CLEAR     36  28  75 CALM      30.11S
$$

...SOUTHWEST WISCONSIN...


CITY           SKY/WX    TMP DP  RH WIND       PRES   REMARKS
LA CROSSE      CLEAR     39  37  92 N6        30.14R WCI  35
PRAIRIE DU CHI CLEAR     37  36  93 CALM      30.13R
BOSCOBEL       FOG       34  32  92 CALM      30.14R VSB 1
LONE ROCK      CLEAR     40  35  83 W6        30.12R
PLATTEVILLE    CLEAR     38  36  91 CALM      30.12R
FORT MC COY    CLEAR     29  29  99 CALM      30.15R
CAMP DOUGLAS   CLEAR     37  37 100 NW1       30.13R
VIROQUA        FAIR      37  37 100 CALM      30.12R
WIS DELLS      CLEAR     44  36  75 CALM      30.11R
$$

...ELSEWHERE IN WISCONSIN...


CITY           SKY/WX    TMP DP  RH WIND       PRES   REMARKS
MILWAUKEE      MOCLDY    46  39  76 N10       30.07R
MADISON        CLOUDY    47  40  76 N7        30.10R
GREEN BAY      CLOUDY    44  38  79 N13       30.11R
EAU CLAIRE     CLEAR     34  33  96 NE3       30.15R FOG
BLACK RVR FLS  FAIR      28  28 100 CALM      30.14R
MEDFORD        CLOUDY    39  34  81 N14       30.14R WCI  31
WAUSAU         CLOUDY    42  34  73 N7        30.13R
WIS RAPIDS     CLEAR     40  34  79 N9        30.15R WCI  34
MARSHFIELD     CLEAR     39  35  86 NE7       30.13R WCI  34
RICE LAKE      CLOUDY    45  37  72 NE6       30.17R
$$

...NORTHEAST IOWA...


CITY           SKY/WX    TMP DP  RH WIND       PRES   REMARKS
DECORAH        PTCLDY    37  37 100 CALM      30.12R
MASON CITY     CLEAR     32  32 100 CALM      30.13R
CHARLES CITY   CLEAR     39  37  93 NE7       30.13R WCI  34
OELWEIN        CLEAR     39  37  93 NE7       30.12R WCI  34
$$

...ELSEWHERE IN IOWA...


CITY           SKY/WX    TMP DP  RH WIND       PRES   REMARKS
DES MOINES     CLEAR     46  41  82 N3        30.10R
IOWA CITY      CLEAR     41  39  93 NE3       30.11R
FORT DODGE     CLEAR     36  32  87 CALM      30.11R
$$

...NORTHERN ILLINOIS...


CITY           SKY/WX    TMP DP  RH WIND       PRES   REMARKS
CHICAGO-OHARE  CLOUDY    49  41  74 N10       30.04R
CHICAGO-MIDWAY CLOUDY    52  43  71 N9        30.04R
MOLINE         CLEAR     39  37  92 W3        30.09R
ROCKFORD       PTCLDY    44  40  85 NW7       30.10R
PEORIA         CLEAR     47  40  76 N3        30.07R
$$

NOTE: "FAIR" INDICATES FEW OR NO CLOUDS BELOW 12,000 FEET WITH NO
SIGNIFICANT WEATHER AND/OR OBSTRUCTIONS TO VISIBILITY. WIND
SPEEDS ARE IN MILES-PER-HOUR.



USA.gov is the U.S. government's official web portal to all federal, state and local government web resources and services.